Year,Month,Day,Hour,Minute,Value (Times are PST for temperature in C)
2018,03,29,00,00,4.80
2018,03,29,00,01,4.80
2018,03,29,00,02,4.70
2018,03,29,00,03,4.70
2018,03,29,00,04,4.70
2018,03,29,00,05,4.70
2018,03,29,00,06,4.70
2018,03,29,00,07,4.70
2018,03,29,00,08,4.70
2018,03,29,00,09,4.70
2018,03,29,00,10,4.70
2018,03,29,00,11,4.70
2018,03,29,00,12,4.70
2018,03,29,00,13,4.70
2018,03,29,00,14,4.70
2018,03,29,00,15,4.60
2018,03,29,00,16,4.60
2018,03,29,00,17,4.60
2018,03,29,00,18,4.60
2018,03,29,00,19,4.60
2018,03,29,00,20,4.60
2018,03,29,00,21,4.60
2018,03,29,00,22,4.60
2018,03,29,00,23,4.60
2018,03,29,00,24,4.60
2018,03,29,00,25,4.60
2018,03,29,00,26,4.60
2018,03,29,00,27,4.60
2018,03,29,00,28,4.50
2018,03,29,00,29,4.50
2018,03,29,00,30,4.50
2018,03,29,00,31,4.50
2018,03,29,00,32,4.40
2018,03,29,00,33,4.40
2018,03,29,00,34,4.40
2018,03,29,00,35,4.30
2018,03,29,00,36,4.30
2018,03,29,00,37,4.30
2018,03,29,00,38,4.30
2018,03,29,00,39,4.30
2018,03,29,00,40,4.30
2018,03,29,00,41,4.30
2018,03,29,00,42,4.30
2018,03,29,00,43,4.30
2018,03,29,00,44,4.30
2018,03,29,00,45,4.30
2018,03,29,00,46,4.30
2018,03,29,00,47,4.30
2018,03,29,00,48,4.30
2018,03,29,00,49,4.30
2018,03,29,00,50,4.30
2018,03,29,00,51,4.30
2018,03,29,00,52,4.30
2018,03,29,00,53,4.30
2018,03,29,00,54,4.30
2018,03,29,00,55,4.30
2018,03,29,00,56,4.30
2018,03,29,00,57,4.30
2018,03,29,00,58,4.30
2018,03,29,00,59,4.30
2018,03,29,01,00,4.30
2018,03,29,01,01,4.30
2018,03,29,01,02,4.30
2018,03,29,01,03,4.20
2018,03,29,01,04,4.20
2018,03,29,01,05,4.20
2018,03,29,01,06,4.20
2018,03,29,01,07,4.20
2018,03,29,01,08,4.20
2018,03,29,01,09,4.20
2018,03,29,01,10,4.20
2018,03,29,01,11,4.20
2018,03,29,01,12,4.20
2018,03,29,01,13,4.20
2018,03,29,01,14,4.20
2018,03,29,01,15,4.20
2018,03,29,01,16,4.20
2018,03,29,01,17,4.20
2018,03,29,01,18,4.20
2018,03,29,01,19,4.20
2018,03,29,01,20,4.20
2018,03,29,01,21,4.20
2018,03,29,01,22,4.20
2018,03,29,01,23,4.20
2018,03,29,01,24,4.20
2018,03,29,01,25,4.20
2018,03,29,01,26,4.20
2018,03,29,01,27,4.20
2018,03,29,01,28,4.20
2018,03,29,01,29,4.20
2018,03,29,01,30,4.20
2018,03,29,01,31,4.20
2018,03,29,01,32,4.20
2018,03,29,01,33,4.20
2018,03,29,01,34,4.20
2018,03,29,01,35,4.20
2018,03,29,01,36,4.30
2018,03,29,01,37,4.30
2018,03,29,01,38,4.30
2018,03,29,01,39,4.30
2018,03,29,01,40,4.30
2018,03,29,01,41,4.30
2018,03,29,01,42,4.30
2018,03,29,01,43,4.20
2018,03,29,01,44,4.20
2018,03,29,01,45,4.20
2018,03,29,01,46,4.20
2018,03,29,01,47,4.20
2018,03,29,01,48,4.20
2018,03,29,01,49,4.20
2018,03,29,01,50,4.20
2018,03,29,01,51,4.20
2018,03,29,01,52,4.20
2018,03,29,01,53,4.20
2018,03,29,01,54,4.20
2018,03,29,01,55,4.20
2018,03,29,01,56,4.20
2018,03,29,01,57,4.20
2018,03,29,01,58,4.20
2018,03,29,01,59,4.20
2018,03,29,02,00,4.30
2018,03,29,02,01,4.30
2018,03,29,02,02,4.30
2018,03,29,02,03,4.30
2018,03,29,02,04,4.30
2018,03,29,02,05,4.30
2018,03,29,02,06,4.30
2018,03,29,02,07,4.30
2018,03,29,02,08,4.30
2018,03,29,02,09,4.30
2018,03,29,02,10,4.30
2018,03,29,02,11,4.40
2018,03,29,02,12,4.40
2018,03,29,02,13,4.40
2018,03,29,02,14,4.40
2018,03,29,02,15,4.40
2018,03,29,02,16,4.40
2018,03,29,02,17,4.40
2018,03,29,02,18,4.40
2018,03,29,02,19,4.40
2018,03,29,02,20,4.40
2018,03,29,02,21,4.40
2018,03,29,02,22,4.50
2018,03,29,02,23,4.50
2018,03,29,02,24,4.50
2018,03,29,02,25,4.50
2018,03,29,02,26,4.50
2018,03,29,02,27,4.60
2018,03,29,02,28,4.60
2018,03,29,02,29,4.60
2018,03,29,02,30,4.60
2018,03,29,02,31,4.60
2018,03,29,02,32,4.60
2018,03,29,02,33,4.60
2018,03,29,02,34,4.60
2018,03,29,02,35,4.60
2018,03,29,02,36,4.60
2018,03,29,02,37,4.60
2018,03,29,02,38,4.60
2018,03,29,02,39,4.60
2018,03,29,02,40,4.60
2018,03,29,02,41,4.60
2018,03,29,02,42,4.60
2018,03,29,02,43,4.60
2018,03,29,02,44,4.60
2018,03,29,02,45,4.70
2018,03,29,02,46,4.70
2018,03,29,02,47,4.70
2018,03,29,02,48,4.70
2018,03,29,02,49,4.70
2018,03,29,02,50,4.70
2018,03,29,02,51,4.70
2018,03,29,02,52,4.70
2018,03,29,02,53,4.70
2018,03,29,02,54,4.70
2018,03,29,02,55,4.80
2018,03,29,02,56,4.80
2018,03,29,02,57,4.80
2018,03,29,02,58,4.80
2018,03,29,02,59,4.80
2018,03,29,03,00,4.80
2018,03,29,03,01,4.80
2018,03,29,03,02,4.80
2018,03,29,03,03,4.80
2018,03,29,03,04,4.80
2018,03,29,03,05,4.80
2018,03,29,03,06,4.80
2018,03,29,03,07,4.80
2018,03,29,03,08,4.80
2018,03,29,03,09,4.80
2018,03,29,03,10,4.80
2018,03,29,03,11,4.80
2018,03,29,03,12,4.80
2018,03,29,03,13,4.80
2018,03,29,03,14,4.70
2018,03,29,03,15,4.70
2018,03,29,03,16,4.70
2018,03,29,03,17,4.70
2018,03,29,03,18,4.70
2018,03,29,03,19,4.70
2018,03,29,03,20,4.60
2018,03,29,03,21,4.60
2018,03,29,03,22,4.60
2018,03,29,03,23,4.60
2018,03,29,03,24,4.60
2018,03,29,03,25,4.60
2018,03,29,03,26,4.60
2018,03,29,03,27,4.60
2018,03,29,03,28,4.60
2018,03,29,03,29,4.60
2018,03,29,03,30,4.60
2018,03,29,03,31,4.60
2018,03,29,03,32,4.60
2018,03,29,03,33,4.60
2018,03,29,03,34,4.60
2018,03,29,03,35,4.60
2018,03,29,03,36,4.60
2018,03,29,03,37,4.60
2018,03,29,03,38,4.60
2018,03,29,03,39,4.60
2018,03,29,03,40,4.60
2018,03,29,03,41,4.60
2018,03,29,03,42,4.60
2018,03,29,03,43,4.60
2018,03,29,03,44,4.60
2018,03,29,03,45,4.70
2018,03,29,03,46,4.70
2018,03,29,03,47,4.70
2018,03,29,03,48,4.70
2018,03,29,03,49,4.70
2018,03,29,03,50,4.70
2018,03,29,03,51,4.70
2018,03,29,03,52,4.80
2018,03,29,03,53,4.80
2018,03,29,03,54,4.80
2018,03,29,03,55,4.80
2018,03,29,03,56,4.80
2018,03,29,03,57,4.80
2018,03,29,03,58,4.80
2018,03,29,03,59,4.80
2018,03,29,04,00,4.90
2018,03,29,04,01,4.90
2018,03,29,04,02,4.90
2018,03,29,04,03,4.90
2018,03,29,04,04,4.90
2018,03,29,04,05,4.90
2018,03,29,04,06,4.90
2018,03,29,04,07,4.90
2018,03,29,04,08,4.90
2018,03,29,04,09,4.90
2018,03,29,04,10,4.90
2018,03,29,04,11,4.90
2018,03,29,04,12,4.90
2018,03,29,04,13,4.90
2018,03,29,04,14,4.90
2018,03,29,04,15,4.90
2018,03,29,04,16,4.90
2018,03,29,04,17,4.90
2018,03,29,04,18,4.80
2018,03,29,04,19,4.80
2018,03,29,04,20,4.80
2018,03,29,04,21,4.80
2018,03,29,04,22,4.80
2018,03,29,04,23,4.80
2018,03,29,04,24,4.80
2018,03,29,04,25,4.80
2018,03,29,04,26,4.80
2018,03,29,04,27,4.80
2018,03,29,04,28,4.80
2018,03,29,04,29,4.80
2018,03,29,04,30,4.80
2018,03,29,04,31,4.80
2018,03,29,04,32,4.80
2018,03,29,04,33,4.80
2018,03,29,04,34,4.80
2018,03,29,04,35,4.80
2018,03,29,04,36,4.80
2018,03,29,04,37,4.80
2018,03,29,04,38,4.80
2018,03,29,04,39,4.80
2018,03,29,04,40,4.80
2018,03,29,04,41,4.80
2018,03,29,04,42,4.80
2018,03,29,04,43,4.70
2018,03,29,04,44,4.70
2018,03,29,04,45,4.70
2018,03,29,04,46,4.70
2018,03,29,04,47,4.70
2018,03,29,04,48,4.70
2018,03,29,04,49,4.70
2018,03,29,04,50,4.70
2018,03,29,04,51,4.70
2018,03,29,04,52,4.70
2018,03,29,04,53,4.70
2018,03,29,04,54,4.70
2018,03,29,04,55,4.70
2018,03,29,04,56,4.70
2018,03,29,04,57,4.70
2018,03,29,04,58,4.70
2018,03,29,04,59,4.70
2018,03,29,05,00,4.70
2018,03,29,05,01,4.70
2018,03,29,05,02,4.70
2018,03,29,05,03,4.70
2018,03,29,05,04,4.70
2018,03,29,05,05,4.70
2018,03,29,05,06,4.70
2018,03,29,05,07,4.70
2018,03,29,05,08,4.70
2018,03,29,05,09,4.70
2018,03,29,05,10,4.70
2018,03,29,05,11,4.70
2018,03,29,05,12,4.70
2018,03,29,05,13,4.70
2018,03,29,05,14,4.70
2018,03,29,05,15,4.70
2018,03,29,05,16,4.70
2018,03,29,05,17,4.70
2018,03,29,05,18,4.70
2018,03,29,05,19,4.70
2018,03,29,05,20,4.70
2018,03,29,05,21,4.70
2018,03,29,05,22,4.70
2018,03,29,05,23,4.70
2018,03,29,05,24,4.70
2018,03,29,05,25,4.70
2018,03,29,05,26,4.70
2018,03,29,05,27,4.70
2018,03,29,05,28,4.70
2018,03,29,05,29,4.70
2018,03,29,05,30,4.70
2018,03,29,05,31,4.70
2018,03,29,05,32,4.70
2018,03,29,05,33,4.70
2018,03,29,05,34,4.70
2018,03,29,05,35,4.70
2018,03,29,05,36,4.70
2018,03,29,05,37,4.70
2018,03,29,05,38,4.70
2018,03,29,05,39,4.70
2018,03,29,05,40,4.70
2018,03,29,05,41,4.70
2018,03,29,05,42,4.70
2018,03,29,05,43,4.70
2018,03,29,05,44,4.70
2018,03,29,05,45,4.70
2018,03,29,05,46,4.70
2018,03,29,05,47,4.70
2018,03,29,05,48,4.70
2018,03,29,05,49,4.70
2018,03,29,05,50,4.70
2018,03,29,05,51,4.70
2018,03,29,05,52,4.70
2018,03,29,05,53,4.70
2018,03,29,05,54,4.70
2018,03,29,05,55,4.70
2018,03,29,05,56,4.70
2018,03,29,05,57,4.70
2018,03,29,05,58,4.70
2018,03,29,05,59,4.70
2018,03,29,06,00,4.70
2018,03,29,06,01,4.70
2018,03,29,06,02,4.70
2018,03,29,06,03,4.70
2018,03,29,06,04,4.70
2018,03,29,06,05,4.70
2018,03,29,06,06,4.70
2018,03,29,06,07,4.70
2018,03,29,06,08,4.70
2018,03,29,06,09,4.70
2018,03,29,06,10,4.70
2018,03,29,06,11,4.70
2018,03,29,06,12,4.80
2018,03,29,06,13,4.70
2018,03,29,06,14,4.80
2018,03,29,06,15,4.80
2018,03,29,06,16,4.80
2018,03,29,06,17,4.80
2018,03,29,06,18,4.80
2018,03,29,06,19,4.80
2018,03,29,06,20,4.80
2018,03,29,06,21,4.80
2018,03,29,06,22,4.80
2018,03,29,06,23,4.80
2018,03,29,06,24,4.80
2018,03,29,06,25,4.80
2018,03,29,06,26,4.80
2018,03,29,06,27,4.80
2018,03,29,06,28,4.80
2018,03,29,06,29,4.80
2018,03,29,06,30,4.80
2018,03,29,06,31,4.80
2018,03,29,06,32,4.80
2018,03,29,06,33,4.80
2018,03,29,06,34,4.80
2018,03,29,06,35,4.80
2018,03,29,06,36,4.80
2018,03,29,06,37,4.80
2018,03,29,06,38,4.80
2018,03,29,06,39,4.80
2018,03,29,06,40,4.90
2018,03,29,06,41,4.90
2018,03,29,06,42,4.90
2018,03,29,06,43,4.90
2018,03,29,06,44,4.90
2018,03,29,06,45,4.90
2018,03,29,06,46,4.90
2018,03,29,06,47,4.90
2018,03,29,06,48,4.90
2018,03,29,06,49,4.90
2018,03,29,06,50,4.90
2018,03,29,06,51,4.90
2018,03,29,06,52,4.90
2018,03,29,06,53,4.90
2018,03,29,06,54,4.90
2018,03,29,06,55,4.90
2018,03,29,06,56,4.90
2018,03,29,06,57,4.90
2018,03,29,06,58,4.90
2018,03,29,06,59,4.90
2018,03,29,07,00,4.90
2018,03,29,07,01,4.90
2018,03,29,07,02,4.90
2018,03,29,07,03,5.00
2018,03,29,07,04,4.90
2018,03,29,07,05,4.90
2018,03,29,07,06,4.90
2018,03,29,07,07,5.00
2018,03,29,07,08,4.90
2018,03,29,07,09,4.90
2018,03,29,07,10,5.00
2018,03,29,07,11,5.00
2018,03,29,07,12,5.00
2018,03,29,07,13,5.00
2018,03,29,07,14,5.00
2018,03,29,07,15,5.00
2018,03,29,07,16,5.00
2018,03,29,07,17,5.10
2018,03,29,07,18,5.10
2018,03,29,07,19,5.10
2018,03,29,07,20,5.10
2018,03,29,07,21,5.10
2018,03,29,07,22,5.10
2018,03,29,07,23,5.10
2018,03,29,07,24,5.10
2018,03,29,07,25,5.10
2018,03,29,07,26,5.10
2018,03,29,07,27,5.10
2018,03,29,07,28,5.10
2018,03,29,07,29,5.10
2018,03,29,07,30,5.10
2018,03,29,07,31,5.10
2018,03,29,07,32,5.20
2018,03,29,07,33,5.20
2018,03,29,07,34,5.20
2018,03,29,07,35,5.20
2018,03,29,07,36,5.20
2018,03,29,07,37,5.20
2018,03,29,07,38,5.20
2018,03,29,07,39,5.20
2018,03,29,07,40,5.20
2018,03,29,07,41,5.20
2018,03,29,07,42,5.20
2018,03,29,07,43,5.20
2018,03,29,07,44,5.20
2018,03,29,07,45,5.20
2018,03,29,07,46,5.30
2018,03,29,07,47,5.30
2018,03,29,07,48,5.30
2018,03,29,07,49,5.30
2018,03,29,07,50,5.30
2018,03,29,07,51,5.30
2018,03,29,07,52,5.30
2018,03,29,07,53,5.30
2018,03,29,07,54,5.30
2018,03,29,07,55,5.30
2018,03,29,07,56,5.30
2018,03,29,07,57,5.30
2018,03,29,07,58,5.30
2018,03,29,07,59,5.30
2018,03,29,08,00,5.30
2018,03,29,08,01,5.30
2018,03,29,08,02,5.30
2018,03,29,08,03,5.30
2018,03,29,08,04,5.30
2018,03,29,08,05,5.30
2018,03,29,08,06,5.30
2018,03,29,08,07,5.40
2018,03,29,08,08,5.40
2018,03,29,08,09,5.40
2018,03,29,08,10,5.40
2018,03,29,08,11,5.40
2018,03,29,08,12,5.50
2018,03,29,08,13,5.50
2018,03,29,08,14,5.50
2018,03,29,08,15,5.50
2018,03,29,08,16,5.50
2018,03,29,08,17,5.60
2018,03,29,08,18,5.60
2018,03,29,08,19,5.60
2018,03,29,08,20,5.60
2018,03,29,08,21,5.70
2018,03,29,08,22,5.70
2018,03,29,08,23,5.70
2018,03,29,08,24,5.70
2018,03,29,08,25,5.70
2018,03,29,08,26,5.80
2018,03,29,08,27,5.80
2018,03,29,08,28,5.80
2018,03,29,08,29,5.80
2018,03,29,08,30,5.80
2018,03,29,08,31,5.90
2018,03,29,08,32,5.90
2018,03,29,08,33,5.90
2018,03,29,08,34,6.00
2018,03,29,08,35,6.00
2018,03,29,08,36,6.00
2018,03,29,08,37,6.10
2018,03,29,08,38,6.10
2018,03,29,08,39,6.10
2018,03,29,08,40,6.10
2018,03,29,08,41,6.20
2018,03,29,08,42,6.20
2018,03,29,08,43,6.20
2018,03,29,08,44,6.20
2018,03,29,08,45,6.30
2018,03,29,08,46,6.30
2018,03,29,08,47,6.30
2018,03,29,08,48,6.30
2018,03,29,08,49,6.40
2018,03,29,08,50,6.40
2018,03,29,08,51,6.40
2018,03,29,08,52,6.40
2018,03,29,08,53,6.50
2018,03,29,08,54,6.50
2018,03,29,08,55,6.50
2018,03,29,08,56,6.60
2018,03,29,08,57,6.60
2018,03,29,08,58,6.60
2018,03,29,08,59,6.60
2018,03,29,09,00,6.60
2018,03,29,09,01,6.70
2018,03,29,09,02,6.70
2018,03,29,09,03,6.70
2018,03,29,09,04,6.70
2018,03,29,09,05,6.70
2018,03,29,09,06,6.70
2018,03,29,09,07,6.80
2018,03,29,09,08,6.80
2018,03,29,09,09,6.80
2018,03,29,09,10,6.80
2018,03,29,09,11,6.80
2018,03,29,09,12,6.80
2018,03,29,09,13,6.80
2018,03,29,09,14,6.80
2018,03,29,09,15,6.90
2018,03,29,09,16,6.90
2018,03,29,09,17,6.90
2018,03,29,09,18,6.90
2018,03,29,09,19,6.90
2018,03,29,09,20,6.90
2018,03,29,09,21,6.90
2018,03,29,09,22,6.90
2018,03,29,09,23,6.90
2018,03,29,09,24,7.00
2018,03,29,09,25,7.00
2018,03,29,09,26,7.00
2018,03,29,09,27,7.00
2018,03,29,09,28,7.00
2018,03,29,09,29,7.10
2018,03,29,09,30,7.10
2018,03,29,09,31,7.10
2018,03,29,09,32,7.20
2018,03,29,09,33,7.20
2018,03,29,09,34,7.20
2018,03,29,09,35,7.20
2018,03,29,09,36,7.20
2018,03,29,09,37,7.30
2018,03,29,09,38,7.30
2018,03,29,09,39,7.30
2018,03,29,09,40,7.30
2018,03,29,09,41,7.30
2018,03,29,09,42,7.30
2018,03,29,09,43,7.30
2018,03,29,09,44,7.30
2018,03,29,09,45,7.30
2018,03,29,09,46,7.30
2018,03,29,09,47,7.30
2018,03,29,09,48,7.30
2018,03,29,09,49,7.30
2018,03,29,09,50,7.30
2018,03,29,09,51,7.30
2018,03,29,09,52,7.30
2018,03,29,09,53,7.30
2018,03,29,09,54,7.30
2018,03,29,09,55,7.30
2018,03,29,09,56,7.30
2018,03,29,09,57,7.30
2018,03,29,09,58,7.40
2018,03,29,09,59,7.40
2018,03,29,10,00,7.40
2018,03,29,10,01,7.40
2018,03,29,10,02,7.40
2018,03,29,10,03,7.40
2018,03,29,10,04,7.40
2018,03,29,10,05,7.40
2018,03,29,10,06,7.40
2018,03,29,10,07,7.50
2018,03,29,10,08,7.40
2018,03,29,10,09,7.50
2018,03,29,10,10,7.50
2018,03,29,10,11,7.50
2018,03,29,10,12,7.50
2018,03,29,10,13,7.50
2018,03,29,10,14,7.50
2018,03,29,10,15,7.50
2018,03,29,10,16,7.50
2018,03,29,10,17,7.50
2018,03,29,10,18,7.50
2018,03,29,10,19,7.50
2018,03,29,10,20,7.50
2018,03,29,10,21,7.50
2018,03,29,10,22,7.50
2018,03,29,10,23,7.60
2018,03,29,10,24,7.60
2018,03,29,10,25,7.60
2018,03,29,10,26,7.60
2018,03,29,10,27,7.60
2018,03,29,10,28,7.60
2018,03,29,10,29,7.60
2018,03,29,10,30,7.70
2018,03,29,10,31,7.70
2018,03,29,10,32,7.70
2018,03,29,10,33,7.70
2018,03,29,10,34,7.70
2018,03,29,10,35,7.70
2018,03,29,10,36,7.70
2018,03,29,10,37,7.80
2018,03,29,10,38,7.80
2018,03,29,10,39,7.80
2018,03,29,10,40,7.80
2018,03,29,10,41,7.80
2018,03,29,10,42,7.80
2018,03,29,10,43,7.90
2018,03,29,10,44,7.90
2018,03,29,10,45,7.90
2018,03,29,10,46,7.90
2018,03,29,10,47,8.00
2018,03,29,10,48,8.00
2018,03,29,10,49,8.10
2018,03,29,10,50,8.10
2018,03,29,10,51,8.10
2018,03,29,10,52,8.10
2018,03,29,10,53,8.00
2018,03,29,10,54,8.00
2018,03,29,10,55,8.00
2018,03,29,10,56,8.00
2018,03,29,10,57,8.00
2018,03,29,10,58,8.00
2018,03,29,10,59,8.10
2018,03,29,11,00,8.10
2018,03,29,11,01,8.10
2018,03,29,11,02,8.00
2018,03,29,11,03,8.00
2018,03,29,11,04,8.00
2018,03,29,11,05,8.00
2018,03,29,11,06,7.90
2018,03,29,11,07,7.90
2018,03,29,11,08,7.90
2018,03,29,11,09,7.90
2018,03,29,11,10,7.90
2018,03,29,11,11,7.90
2018,03,29,11,12,7.90
2018,03,29,11,13,7.90
2018,03,29,11,14,7.90
2018,03,29,11,15,7.90
2018,03,29,11,16,7.90
2018,03,29,11,17,7.90
2018,03,29,11,18,7.90
2018,03,29,11,19,7.90
2018,03,29,11,20,7.90
2018,03,29,11,21,7.90
2018,03,29,11,22,7.90
2018,03,29,11,23,7.90
2018,03,29,11,24,7.90
2018,03,29,11,25,7.90
2018,03,29,11,26,7.90
2018,03,29,11,27,7.90
2018,03,29,11,28,7.90
2018,03,29,11,29,7.90
2018,03,29,11,30,7.90
2018,03,29,11,31,7.90
2018,03,29,11,32,7.90
2018,03,29,11,33,7.80
2018,03,29,11,34,7.80
2018,03,29,11,35,7.80
2018,03,29,11,36,7.80
2018,03,29,11,37,7.80
2018,03,29,11,38,7.80
2018,03,29,11,39,7.80
2018,03,29,11,40,7.80
2018,03,29,11,41,7.80
2018,03,29,11,42,7.80
2018,03,29,11,43,7.80
2018,03,29,11,44,7.80
2018,03,29,11,45,7.80
2018,03,29,11,46,7.80
2018,03,29,11,47,7.80
2018,03,29,11,48,7.80
2018,03,29,11,49,7.80
2018,03,29,11,50,7.80
2018,03,29,11,51,7.80
2018,03,29,11,52,7.80
2018,03,29,11,53,7.80
2018,03,29,11,54,7.80
2018,03,29,11,55,7.80
2018,03,29,11,56,7.80
2018,03,29,11,57,7.80
2018,03,29,11,58,7.80
2018,03,29,11,59,7.80
2018,03,29,12,00,7.80
2018,03,29,12,01,7.70
2018,03,29,12,02,7.70
2018,03,29,12,03,7.70
2018,03,29,12,04,7.70
2018,03,29,12,05,7.70
2018,03,29,12,06,7.70
2018,03,29,12,07,7.70
2018,03,29,12,08,7.70
2018,03,29,12,09,7.70
2018,03,29,12,10,7.60
2018,03,29,12,11,7.60
2018,03,29,12,12,7.60
2018,03,29,12,13,7.60
2018,03,29,12,14,7.60
2018,03,29,12,15,7.60
2018,03,29,12,16,7.60
2018,03,29,12,17,7.60
2018,03,29,12,18,7.60
2018,03,29,12,19,7.60
2018,03,29,12,20,7.60
2018,03,29,12,21,7.60
2018,03,29,12,22,7.60
2018,03,29,12,23,7.60
2018,03,29,12,24,7.60
2018,03,29,12,25,7.60
2018,03,29,12,26,7.60
2018,03,29,12,27,7.60
2018,03,29,12,28,7.60
2018,03,29,12,29,7.60
2018,03,29,12,30,7.60
2018,03,29,12,31,7.60
2018,03,29,12,32,7.70
2018,03,29,12,33,7.70
2018,03,29,12,34,7.70
2018,03,29,12,35,7.70
2018,03,29,12,36,7.70
2018,03,29,12,37,7.80
2018,03,29,12,38,7.80
2018,03,29,12,39,7.80
2018,03,29,12,40,7.80
2018,03,29,12,41,7.70
2018,03,29,12,42,7.70
2018,03,29,12,43,7.70
2018,03,29,12,44,7.70
2018,03,29,12,45,7.70
2018,03,29,12,46,7.70
2018,03,29,12,47,7.70
2018,03,29,12,48,7.70
2018,03,29,12,49,7.70
2018,03,29,12,50,7.70
2018,03,29,12,51,7.70
2018,03,29,12,52,7.70
2018,03,29,12,53,7.70
2018,03,29,12,54,7.70
2018,03,29,12,55,7.70
2018,03,29,12,56,7.70
2018,03,29,12,57,7.70
2018,03,29,12,58,7.70
2018,03,29,12,59,7.70
2018,03,29,13,00,7.70
2018,03,29,13,01,7.70
2018,03,29,13,02,7.70
2018,03,29,13,03,7.70
2018,03,29,13,04,7.70
2018,03,29,13,05,7.70
2018,03,29,13,06,7.80
2018,03,29,13,07,7.80
2018,03,29,13,08,7.80
2018,03,29,13,09,7.80
2018,03,29,13,10,7.80
2018,03,29,13,11,7.80
2018,03,29,13,12,7.80
2018,03,29,13,13,7.80
2018,03,29,13,14,7.80
2018,03,29,13,15,7.80
2018,03,29,13,16,7.80
2018,03,29,13,17,7.80
2018,03,29,13,18,7.80
2018,03,29,13,19,7.80
2018,03,29,13,20,7.80
2018,03,29,13,21,7.80
2018,03,29,13,22,7.80
2018,03,29,13,23,7.80
2018,03,29,13,24,7.80
2018,03,29,13,25,7.80
2018,03,29,13,26,7.80
2018,03,29,13,27,7.80
2018,03,29,13,28,7.80
2018,03,29,13,29,7.70
2018,03,29,13,30,7.70
2018,03,29,13,31,7.70
2018,03,29,13,32,7.70
2018,03,29,13,33,7.70
2018,03,29,13,34,7.70
2018,03,29,13,35,7.80
2018,03,29,13,36,7.80
2018,03,29,13,37,7.80
2018,03,29,13,38,7.80
2018,03,29,13,39,7.70
2018,03,29,13,40,7.80
2018,03,29,13,41,7.70
2018,03,29,13,42,7.80
2018,03,29,13,43,7.80
2018,03,29,13,44,7.80
2018,03,29,13,45,7.80
2018,03,29,13,46,7.80
2018,03,29,13,47,7.80
2018,03,29,13,48,7.80
2018,03,29,13,49,7.80
2018,03,29,13,50,7.80
2018,03,29,13,51,7.80
2018,03,29,13,52,7.80
2018,03,29,13,53,7.80
2018,03,29,13,54,7.80
2018,03,29,13,55,7.70
2018,03,29,13,56,7.70
2018,03,29,13,57,7.70
2018,03,29,13,58,7.70
2018,03,29,13,59,7.70
2018,03,29,14,00,7.70
2018,03,29,14,01,7.70
2018,03,29,14,02,7.70
2018,03,29,14,03,7.70
2018,03,29,14,04,7.70
2018,03,29,14,05,7.70
2018,03,29,14,06,7.70
2018,03,29,14,07,7.70
2018,03,29,14,08,7.70
2018,03,29,14,09,7.70
2018,03,29,14,10,7.70
2018,03,29,14,11,7.70
2018,03,29,14,12,7.80
2018,03,29,14,13,7.80
2018,03,29,14,14,7.80
2018,03,29,14,15,7.80
2018,03,29,14,16,7.80
2018,03,29,14,17,7.80
2018,03,29,14,18,7.80
2018,03,29,14,19,7.80
2018,03,29,14,20,7.80
2018,03,29,14,21,7.90
2018,03,29,14,22,7.90
2018,03,29,14,23,7.90
2018,03,29,14,24,7.90
2018,03,29,14,25,7.90
2018,03,29,14,26,7.90
2018,03,29,14,27,7.90
2018,03,29,14,28,7.90
2018,03,29,14,29,8.00
2018,03,29,14,30,8.00
2018,03,29,14,31,7.90
2018,03,29,14,32,7.90
2018,03,29,14,33,7.90
2018,03,29,14,34,7.90
2018,03,29,14,35,7.90
2018,03,29,14,36,7.90
2018,03,29,14,37,7.90
2018,03,29,14,38,7.90
2018,03,29,14,39,7.90
2018,03,29,14,40,7.90
2018,03,29,14,41,7.90
2018,03,29,14,42,7.90
2018,03,29,14,43,7.90
2018,03,29,14,44,7.90
2018,03,29,14,45,7.90
2018,03,29,14,46,7.90
2018,03,29,14,47,7.90
2018,03,29,14,48,7.90
2018,03,29,14,49,7.80
2018,03,29,14,50,7.80
2018,03,29,14,51,7.80
2018,03,29,14,52,7.90
2018,03,29,14,53,7.90
2018,03,29,14,54,7.90
2018,03,29,14,55,7.90
2018,03,29,14,56,7.90
2018,03,29,14,57,7.90
2018,03,29,14,58,7.90
2018,03,29,14,59,7.90
2018,03,29,15,00,7.90
2018,03,29,15,01,7.90
2018,03,29,15,02,7.90
2018,03,29,15,03,7.90
2018,03,29,15,04,7.90
2018,03,29,15,05,7.90
2018,03,29,15,06,7.90
2018,03,29,15,07,7.90
2018,03,29,15,08,7.80
2018,03,29,15,09,7.80
2018,03,29,15,10,7.80
2018,03,29,15,11,7.80
2018,03,29,15,12,7.80
2018,03,29,15,13,7.80
2018,03,29,15,14,7.80
2018,03,29,15,15,7.80
2018,03,29,15,16,7.80
2018,03,29,15,17,7.90
2018,03,29,15,18,7.90
2018,03,29,15,19,7.90
2018,03,29,15,20,7.90
2018,03,29,15,21,7.90
2018,03,29,15,22,7.90
2018,03,29,15,23,7.90
2018,03,29,15,24,7.90
2018,03,29,15,25,7.90
2018,03,29,15,26,8.00
2018,03,29,15,27,8.00
2018,03,29,15,28,8.00
2018,03,29,15,29,8.00
2018,03,29,15,30,8.00
2018,03,29,15,31,8.10
2018,03,29,15,32,8.10
2018,03,29,15,33,8.10
2018,03,29,15,34,8.10
2018,03,29,15,35,8.10
2018,03,29,15,36,8.10
2018,03,29,15,37,8.10
2018,03,29,15,38,8.10
2018,03,29,15,39,8.10
2018,03,29,15,40,8.10
2018,03,29,15,41,8.10
2018,03,29,15,42,8.10
2018,03,29,15,43,8.10
2018,03,29,15,44,8.10
2018,03,29,15,45,8.10
2018,03,29,15,46,8.10
2018,03,29,15,47,8.10
2018,03,29,15,48,8.10
2018,03,29,15,49,8.10
2018,03,29,15,50,8.10
2018,03,29,15,51,8.10
2018,03,29,15,52,8.10
2018,03,29,15,53,8.00
2018,03,29,15,54,8.10
2018,03,29,15,55,8.10
2018,03,29,15,56,8.10
2018,03,29,15,57,8.00
2018,03,29,15,58,8.00
2018,03,29,15,59,8.00
2018,03,29,16,00,7.90
2018,03,29,16,01,7.90
2018,03,29,16,02,7.90
2018,03,29,16,03,8.00
2018,03,29,16,04,8.00
2018,03,29,16,05,8.00
2018,03,29,16,06,8.00
2018,03,29,16,07,8.00
2018,03,29,16,08,8.00
2018,03,29,16,09,8.10
2018,03,29,16,10,8.10
2018,03,29,16,11,8.10
2018,03,29,16,12,8.10
2018,03,29,16,13,8.10
2018,03,29,16,14,8.10
2018,03,29,16,15,8.00
2018,03,29,16,16,8.00
2018,03,29,16,17,8.00
2018,03,29,16,18,8.00
2018,03,29,16,19,8.00
2018,03,29,16,20,8.00
2018,03,29,16,21,8.00
2018,03,29,16,22,8.00
2018,03,29,16,23,8.00
2018,03,29,16,24,8.00
2018,03,29,16,25,8.00
2018,03,29,16,26,8.00
2018,03,29,16,27,8.00
2018,03,29,16,28,8.00
2018,03,29,16,29,8.00
2018,03,29,16,30,8.00
2018,03,29,16,31,8.00
2018,03,29,16,32,8.00
2018,03,29,16,33,8.00
2018,03,29,16,34,8.00
2018,03,29,16,35,8.00
2018,03,29,16,36,8.00
2018,03,29,16,37,8.00
2018,03,29,16,38,8.00
2018,03,29,16,39,8.00
2018,03,29,16,40,8.00
2018,03,29,16,41,8.00
2018,03,29,16,42,8.00
2018,03,29,16,43,8.00
2018,03,29,16,44,8.00
2018,03,29,16,45,8.00
2018,03,29,16,46,8.00
2018,03,29,16,47,7.90
2018,03,29,16,48,7.90
2018,03,29,16,49,7.90
2018,03,29,16,50,7.90
2018,03,29,16,51,7.90
2018,03,29,16,52,7.90
2018,03,29,16,53,8.00
2018,03,29,16,54,8.00
2018,03,29,16,55,8.00
2018,03,29,16,56,8.00
2018,03,29,16,57,8.00
2018,03,29,16,58,8.00
2018,03,29,16,59,8.00
2018,03,29,17,00,8.00
2018,03,29,17,01,8.00
2018,03,29,17,02,8.00
2018,03,29,17,03,8.00
2018,03,29,17,04,8.00
2018,03,29,17,05,7.90
2018,03,29,17,06,8.00
2018,03,29,17,07,8.00
2018,03,29,17,08,7.90
2018,03,29,17,09,8.00
2018,03,29,17,10,8.00
2018,03,29,17,11,8.00
2018,03,29,17,12,8.00
2018,03,29,17,13,8.00
2018,03,29,17,14,8.00
2018,03,29,17,15,8.00
2018,03,29,17,16,7.90
2018,03,29,17,17,7.90
2018,03,29,17,18,7.90
2018,03,29,17,19,7.90
2018,03,29,17,20,7.90
2018,03,29,17,21,7.90
2018,03,29,17,22,7.90
2018,03,29,17,23,7.90
2018,03,29,17,24,7.90
2018,03,29,17,25,7.90
2018,03,29,17,26,7.90
2018,03,29,17,27,7.90
2018,03,29,17,28,7.90
2018,03,29,17,29,7.90
2018,03,29,17,30,7.90
2018,03,29,17,31,7.90
2018,03,29,17,32,7.90
2018,03,29,17,33,7.90
2018,03,29,17,34,7.90
2018,03,29,17,35,7.90
2018,03,29,17,36,7.90
2018,03,29,17,37,7.90
2018,03,29,17,38,7.90
2018,03,29,17,39,7.90
2018,03,29,17,40,7.90
2018,03,29,17,41,7.90
2018,03,29,17,42,7.90
2018,03,29,17,43,7.90
2018,03,29,17,44,7.90
2018,03,29,17,45,7.90
2018,03,29,17,46,7.90
2018,03,29,17,47,7.90
2018,03,29,17,48,7.80
2018,03,29,17,49,7.90
2018,03,29,17,50,7.90
2018,03,29,17,51,7.90
2018,03,29,17,52,7.80
2018,03,29,17,53,7.90
2018,03,29,17,54,7.90
2018,03,29,17,55,7.90
2018,03,29,17,56,7.90
2018,03,29,17,57,7.90
2018,03,29,17,58,7.90
2018,03,29,17,59,7.90
2018,03,29,18,00,7.90
2018,03,29,18,01,7.90
2018,03,29,18,02,7.90
2018,03,29,18,03,7.90
2018,03,29,18,04,7.90
2018,03,29,18,05,7.90
2018,03,29,18,06,7.90